Tracking 20945 objects as of 9-Jul-2020
HD Live streaming from Space Station
objects crossing your sky now

PSLV DEB

Track PSLV DEB now!
10-day predictions


NORAD ID: 27150
Int'l Code: 2001-049CW
Perigee: 499.0 km
Apogee: 541.3 km
Inclination: 97.8 °
Period: 94.9 minutes
Semi major axis: 6891 km
RCS: 0.0344 m2 (small)
Launch date: October 22, 2001
Source: India (IND)
Launch site: SRIHARIKOTA (SRI)

Note: This is SATELLITE DEBRIS
aabbcc
Your satellite tracking list
Your tracking list is empty




NASA's NSSDC Master Catalog

Two Line Element Set (TLE):
1 27150U 01049CW  20190.90140751 +.00001060 +00000-0 +55820-4 0  9999
2 27150 097.8160 251.6606 0030684 186.3832 173.7014 15.17613535053723
Source of the keplerian elements: AFSPC